METEOR 2-6 DEB, 45502

Orbit data source: Space-Track

METEOR 2-6 DEB, 45502 is space debris in LEO originally from a launch on Tue, 09 Sep 1980 UTC launched from the Plesetsk Missile And Space Complex (PKMTR). Debris objects in space refer to the collection of defunct objects orbiting the Earth. Examples of debris include non-operational satellites, rocket bodies, and fragments generated from explosions, collisions, or faulty payload assembly.

Loading next visibility...
Identifier
45502, 1980-073W
Orbit
LEO
Country
Flag of CISCIS
Related business
Manufacturer
Unknown
Mission
Spacecraft
Bus & Motor
Unknown
Mass
Unknown
Launch date (UTC)
1980-09-09 (46 years ago)
Launch vehicle
Unknown
Launch site
Plesetsk Missile And Space Complex (PKMTR)
Object type
Payload
Rocket body
Debris
Shape & HBR
Unknown shape, 0.050 m
Radar Cross Section
Small (<0.1 m²)

Expand to show TLE details & history
Last TLE update: 3 days ago

TLE from 3 days ago
0 METEOR 2-6 DEB
1 45502U 80073W   26265.05042199  .00001769  00000-0  58488-3 0  9994
2 45502  81.2224 293.0306 0039969  11.5655 348.6439 14.37200124614573
Epoch: 2026-09-22T01:12Z
TLE epoch observation values (Epoch: 2026-09-22T01:12:36.459Z)
Latitude
-0.00006°
Longitude
-86.04278°
Altitude
742.697 km
Speed
7.498 km/s
True Right ascension
19h 32m 07s
True Declination
0° 00' 00"
Sunlit
Object was in daylight at epoch
Visualization orbit readout
Latitude
Unknown
Longitude
Unknown
Altitude
Unknown
Speed
Unknown
Apparent Right ascension
Unknown
Apparent Declination
Unknown
Sunlit
N/A
Visualization observer readout
Local Sidereal Time
10:56:17
Azimuth
Unknown
Elevation
Unknown
Doppler factor
Unknown
Orbital elements
Apogee altitude
793.453 km
Perigee altitude
736.353 km
Semi-major axis
7,143.04 km
Eccentricity
0.004
Inclination
81.2224°
RAAN
293.0306°
Arg. of periapsis
11.5655°
True anomaly
348.55327°
Mean anomaly
348.6439°
Eccentric anomaly
348.59863°
Mean motion
3.59516 °/min
Orbital period
100.13 mins
BSTAR
0.00058488
Loading maneuver chart data...
Computing Atmospheric mass density...
Loading historical data...
Loading historical data...
Loading historical data...
Loading historical data...
Loading historical data...
Loading historical data...
Loading historical data...

Documentation

Showing up to 5 results
|